Weather in Barcaldine

Australia     23°33′07″S   145°17′03″E
temp.,
°C
wind,
m/s
gust,
m/s
humid.,
%
clouds,
%
prec.,
mm/h
press.,
hPa
HPBL,
m
13 june, sun
sun1301:00+14se33220 0.0 101817
04:00+13ese33370 0.0 101718
07:00+13ene33580 0.0 101811
10:00+21ne23390 0.0 1018430
13:00+25nw22450 0.0 10141186
16:00+26wsw22340 0.0 10121729
19:00+19ssw553487 0.0 101448
22:00+19s57254 0.0 1015103
14 june, mon
mon1401:00+15sse463186 0.0 101563
04:00+14sse444277 0.0 101427
07:00+13e33852 0.0 101525
10:00+21ene115765 0.0 1015370
13:00+26wnw222892 0.0 10121246
16:00+26wsw4424100 0.0 10111011
19:00+21ne113399 0.0 101311
22:00+20nnw003488 0.0 101411
15 june, tue
tue1501:00+19sse222995 0.0 101411
04:00+18e223039 0.0 101411
07:00+17ene334160 0.0 101513
10:00+24nne333333 0.0 1016576
13:00+27nne322899 0.0 10141039
16:00+27w1226100 0.0 1013749
19:00+24sse3330100 0.0 101416
22:00+23ene473297 0.0 1015100
16 june, wed
wed1601:00+20ne595287 0.3 1015105
04:00+19ne7147018 0.6 1014260
07:00+18ne61389100 1.4 1016260
10:00+23nne10126851 1.5 1016653
13:00+26nnw895382 0.5 10141473
16:00+27nnw574659 2.4 1012655
19:00+24nnw444049 0.0 101430
22:00+22n466383 0.0 101589
17 june, thu
thu1701:00+19wsw455383 0.3 101648
04:00+17s61248100 0.3 1016255
07:00+14s5115615 0.0 1018192
10:00+19s67385 0.0 1019560
13:00+24ssw552813 0.0 10161138
16:00+24sw552626 0.0 10151214
19:00+18sw57285 0.0 101798
22:00+15ssw582582 0.0 1018116